Startpagina
METAR-TAF:

METAR-TAF

Vliegvelden :

Luchthaven Diori Hamani

Niamey, Niger

breedte: 13-29N, lengte: 002-10E, hoogte: 223 m

Actueel weer

Dit bericht is 44 minuten geleden gemaakt, om 13:00 UTC
Wind 10 kt uit het oostzuidoosten, variërend tussen het oosten en het zuidzuidoosten
Temperatuur 44°C
Vochtigheid 4%
Druk 1008 hPa
Zicht: 4800 m
verspreid stof

METAR: DRRN 261300Z 11010KT 080V150 4800 DU NSC 44/M07 Q1008 TEMPO 6000

Tijdstip: 14:44 (13:44 UTC)

Verwachting

Dit bericht is 2 uur en het 44 minuten geleden gemaakt, om 11:00 UTC
Verwachting geldig van 26 om 12 UTC tot 27 om 18 UTC
Wind 14 kt uit het oosten
Zicht: 6000 m
Tijdelijke
van 26 om 12 UTC tot 26 om 20 UTC
Zicht: 3000 m
Stuifstof

TAF: DRRN 261100Z 2612/2718 10014KT 6000 NSC TEMPO 2612/2620 3000 BLDU

Waarnemingen en weersverwachtingen van meer dan 4000 vliegvelden (METAR en TAF).

De beschikbare stations zijn de gele en rode punten op de kaart.

Ga met uw muis naar het station om de naam te zien.

Klik dan om waarnemingen en weersverwachtingen te zien.

kaart wijzigen: klik op de groene knoppen met een zwart kruis om in te zoomen, op de groene knop met een streepje om uit te zoomen of op de groene pijlen voor aangrenzende kaarten.


METAR-TAF: